X-SAT

Last updated on Sun Dec 14 2025 00:03:36 GMT+0000 (Coordinated Universal Time)

1 37389U 11015C 25347.24687910 .00000230 00000+0 11540-3 0 9994 2 37389 98.3314 328.3611 0014177 164.2882 195.8741 14.25129447761193
UTC large
Height (km)
Speed (km/s)
/
Latitude / Longitude
Inclination (degrees)
Orbital Period (minutes)
Azimuth
Elevation
Range (km)
Doppler Factor

Next 0 passes for location: London (51.5072 / 0.1276)

Sorry there are no passes over London.